GFSNW_prec_cthk_261.txt.gz
RH
82 69 75 73 74 90 98 84 81 74 68 58 55 52 53 44 41 42 50 50 54 55 53 42 27 19 17 21 23 28 29 32 38 38 40 36 37 42 43 42 46 61 57 49
80 69 77 87 80 83 89 78 77 76 65 59 56 56 52 44 44 46 51 51 52 54 50 37 25 19 18 19 21 26 25 29 34 32 35 36 37 42 45 47 51 57 58 40
79 68 78 96 96 88 80 71 80 76 60 53 56 60 57 53 46 51 52 53 52 55 45 29 21 20 19 19 22 24 22 28 24 23 25 32 39 41 43 43 49 51 51 38
69 66 77 98 94 89 74 74 70 58 60 58 64 64 61 53 55 51 54 53 54 51 47 26 18 20 22 22 25 25 24 29 29 29 32 33 35 38 41 44 42 46 38 41
73 90 98 98 92 97 83 62 64 67 67 65 67 65 53 50 54 57 56 54 53 48 40 16 21 18 19 21 28 27 26 30 28 38 39 36 37 35 36 39 45 48 44 41
73 92 96 98 95 90 79 67 71 71 76 73 65 58 54 54 58 58 55 58 55 48 28 14 12 13 15 18 22 24 25 27 29 32 34 34 32 33 31 34 39 36 37 31
81 87 94 92 98 91 82 72 82 75 80 73 65 57 52 58 61 61 59 55 57 51 20 15 14 18 19 22 24 22 25 25 28 34 32 23 25 27 29 32 32 32 31 30
84 97 98 87 91 94 94 88 84 82 85 80 67 57 56 61 64 64 62 57 49 41 21 23 23 28 24 24 23 24 25 29 35 34 33 26 25 29 32 33 29 27 31 32
80 90 98 89 82 91 91 89 85 74 78 71 60 63 66 66 65 65 63 56 50 36 25 25 25 24 16 25 25 27 31 34 35 41 36 34 22 25 30 32 35 27 32 32
78 78 90 88 87 93 93 89 81 78 75 77 69 65 62 63 62 61 60 57 51 33 33 29 27 29 24 29 28 31 37 39 41 45 42 32 25 26 32 35 27 27 30 32
76 74 81 94 97 95 95 93 86 81 78 73 68 65 59 56 54 56 59 61 47 44 32 26 30 30 29 30 28 29 30 37 41 44 46 40 25 30 31 27 27 29 30 33
81 78 75 91 98 97 94 89 83 75 71 68 69 66 61 62 61 59 63 55 46 31 23 24 26 29 31 27 29 25 32 26 30 31 31 22 22 21 24 27 28 30 32 34
88 79 84 98 97 96 91 81 76 72 66 68 65 62 61 62 64 68 67 57 33 19 15 18 24 25 24 28 26 25 24 24 25 25 21 23 23 24 27 29 30 32 33 32
93 78 87 98 98 96 91 77 81 76 66 71 63 59 61 64 67 72 62 43 26 19 18 18 22 21 23 25 24 23 23 23 23 25 23 25 24 24 27 30 32 33 34 33
84 76 76 77 79 77 84 82 91 83 71 70 66 62 64 64 73 63 60 38 24 17 17 19 19 19 21 23 23 23 20 20 23 24 18 20 21 23 26 28 31 34 33 35
80 77 77 78 75 81 92 92 87 86 73 64 68 65 63 60 56 59 59 40 28 20 17 18 17 17 17 18 20 14 14 15 15 17 18 20 22 23 24 28 31 34 35 37
76 76 78 79 75 76 90 89 83 81 69 62 66 63 62 57 56 59 55 47 26 20 19 18 17 18 18 22 22 12 12 13 16 18 20 22 23 25 28 28 31 34 37 38
75 76 75 78 89 90 95 86 88 78 66 60 60 62 57 55 58 64 59 41 25 22 21 21 20 22 23 25 17 12 13 14 16 19 21 24 26 27 28 29 30 33 37 39
77 76 86 92 87 85 86 86 81 74 65 58 60 61 68 57 61 65 51 32 31 26 27 25 23 24 25 14 13 11 12 14 14 18 22 26 28 28 28 29 30 33 37 41
88 91 94 95 91 77 85 85 74 66 63 57 62 65 65 57 55 52 37 33 31 27 24 24 27 22 15 11 11 10 10 13 17 18 22 26 27 27 27 26 29 33 38 42
92 92 88 80 80 87 87 88 81 75 66 62 64 65 61 51 49 46 38 35 31 30 24 25 25 27 14 10 10 10 11 13 15 17 20 23 25 27 28 28 30 35 40 44
68 72 80 88 89 86 86 82 74 65 58 62 64 64 59 50 48 47 46 35 30 24 28 31 31 16 12 12 12 12 12 13 16 20 23 26 28 28 29 30 32 37 42 45
82 83 86 89 84 76 69 67 59 57 53 59 65 67 58 57 44 43 43 39 36 30 37 34 22 13 12 13 14 15 15 17 19 22 25 28 30 29 29 32 35 40 43 42
89 93 90 80 77 60 53 53 54 52 59 64 67 69 64 60 42 35 35 34 35 38 39 29 15 12 14 15 17 18 18 21 23 25 28 30 28 28 32 36 39 41 42 45
78 80 73 60 52 53 47 47 54 58 60 63 64 67 61 59 53 40 37 40 37 33 26 19 13 14 15 17 18 19 20 23 26 28 30 27 28 32 36 40 41 44 48 50
80 74 61 59 57 57 53 53 53 58 60 57 51 57 58 43 42 51 45 40 36 24 20 16 15 15 18 19 19 22 24 25 27 26 27 29 32 36 39 42 45 49 51 52
73 69 61 61 59 55 53 52 52 49 54 57 50 49 46 46 49 49 39 32 21 16 15 16 17 18 22 22 23 24 25 25 26 28 30 34 37 41 44 46 49 51 52 55

GFSNW_prec_cthk_267.txt.gz
RH
79 81 89 98 98 99 99 98 98 92 80 69 66 67 50 52 49 45 42 35 32 32 38 36 34 31 25 25 21 19 25 33 27 31 26 25 27 36 41 55 58 49 51 46
78 80 84 91 98 92 92 98 98 85 74 71 69 62 55 51 48 45 45 37 33 37 40 43 35 34 26 25 22 25 18 30 34 28 29 24 27 29 32 39 42 50 52 56
71 74 88 98 97 97 90 93 94 96 83 71 64 53 53 50 46 48 41 37 37 42 41 39 36 30 26 24 22 20 18 28 39 38 33 31 36 32 29 34 50 52 42 42
63 89 98 98 99 99 95 94 83 73 83 70 60 62 56 47 46 42 41 38 39 44 47 39 33 27 24 19 20 15 21 24 19 17 18 19 26 26 32 38 35 40 47 37
77 81 91 95 99 98 96 94 85 80 77 69 67 65 56 48 44 38 38 41 45 44 45 40 33 24 20 17 19 21 18 24 20 23 21 22 22 22 24 31 31 36 33 35
83 87 89 82 96 97 94 93 83 71 65 62 62 56 51 48 37 41 43 46 46 45 44 39 27 23 19 20 18 23 22 26 23 27 22 26 27 25 23 25 30 28 33 37
84 96 80 83 95 90 94 91 74 66 65 63 60 61 48 40 38 42 46 48 47 44 41 37 26 25 20 20 22 23 24 24 22 27 26 39 25 15 17 23 25 28 27 27
87 96 84 88 97 96 95 90 74 69 71 73 67 51 44 44 49 51 52 51 48 45 43 38 29 25 22 22 23 22 21 23 28 32 28 21 19 19 18 20 22 23 25 26
88 87 84 92 97 99 96 82 77 70 74 62 50 48 49 49 52 53 52 50 47 46 44 42 30 26 19 21 21 21 21 24 32 32 35 27 24 19 19 21 28 22 24 25
93 97 88 91 96 96 94 84 81 77 71 59 54 48 47 49 50 52 50 48 48 49 50 53 36 29 20 25 21 25 25 30 41 44 44 32 23 21 22 28 35 22 23 27
96 93 90 94 92 95 93 80 77 76 70 64 62 55 54 55 52 47 48 51 54 54 56 49 40 34 24 23 15 22 25 28 34 38 48 48 23 23 23 27 24 22 25 29
96 97 88 94 94 96 91 84 84 80 73 70 68 64 67 64 54 47 51 55 53 54 53 48 47 43 34 26 23 19 24 24 34 30 34 27 21 22 19 22 24 25 29 31
91 98 92 96 96 94 89 86 76 81 71 74 74 71 61 56 52 50 53 53 52 47 45 48 46 39 31 29 22 24 20 23 24 27 21 23 23 20 21 21 23 27 30 31
95 98 98 98 98 92 82 71 69 72 68 77 76 71 65 65 62 58 57 52 49 46 39 39 36 32 27 25 19 20 20 19 21 21 19 19 20 19 21 21 23 25 29 29
95 93 86 97 95 84 80 86 80 73 77 79 80 74 67 65 63 57 51 50 50 48 48 41 37 36 30 19 20 18 17 17 20 20 19 19 18 18 18 21 22 25 27 30
88 83 79 83 84 85 90 85 82 82 82 82 82 76 70 66 62 57 54 53 51 54 49 46 38 34 20 19 16 12 11 15 16 17 18 19 19 18 18 21 22 25 29 31
91 96 95 98 97 97 91 84 82 85 80 78 78 76 73 67 62 59 57 53 53 50 51 45 38 26 18 14 14 11 10 12 15 15 17 18 18 19 19 21 23 26 30 31
93 97 98 98 97 97 96 94 90 86 79 74 75 78 75 70 62 58 55 55 55 52 50 49 37 29 25 17 12 11 10 10 11 13 14 16 17 19 20 22 23 26 28 31
96 98 99 98 97 96 94 92 88 80 76 74 73 73 71 62 57 57 58 56 54 53 45 44 40 30 29 14 10 10 10 10 11 13 15 15 16 19 20 23 25 28 29 31
97 98 98 98 97 95 91 85 77 75 71 72 69 66 64 58 62 60 57 54 52 53 45 46 47 39 25 13 10 10 10 11 12 12 13 13 15 16 20 24 26 28 30 31
98 98 96 98 97 96 94 94 90 83 76 72 70 66 58 61 61 59 56 50 46 45 43 47 42 40 28 10 10 10 10 12 12 11 13 13 13 15 20 23 26 27 30 31
86 83 96 98 97 97 96 89 84 76 72 69 66 63 61 60 59 55 50 45 42 41 43 41 43 32 13 11 12 11 12 15 12 12 12 14 15 17 20 24 26 26 29 31
90 89 93 97 94 94 85 86 75 70 63 65 59 60 60 61 58 55 49 47 44 39 41 43 31 18 14 12 13 14 11 12 12 13 15 16 17 19 22 24 24 26 28 31
84 86 90 84 82 75 68 65 63 59 60 61 61 61 55 56 55 52 52 47 46 44 45 37 24 17 16 16 12 12 11 12 13 15 19 18 17 20 23 24 24 26 29 33
79 76 83 70 66 65 66 60 58 60 62 58 60 56 53 55 53 49 49 52 51 42 39 29 24 22 20 17 13 13 12 14 16 18 19 18 19 23 25 25 27 30 33 35
76 70 73 67 69 67 65 61 58 61 58 58 56 50 49 49 50 51 56 46 43 41 39 29 24 18 14 17 14 15 15 16 20 20 22 21 24 26 26 26 29 32 35 35
74 71 66 69 67 63 58 59 56 56 56 58 50 51 49 50 55 52 47 49 46 42 42 34 23 21 17 17 17 18 18 20 22 24 25 26 28 29 28 30 33 34 35 36

GFSNW_prec_cthk_273.txt.gz
RH
46 45 28 25 34 70 91 83 90 98 98 98 92 79 57 45 43 36 35 34 35 37 40 42 32 29 29 26 24 26 23 27 31 23 24 19 26 32 31 38 48 45 48 34
50 50 36 32 32 52 86 78 94 99 94 96 86 78 61 47 45 35 33 37 39 42 44 41 30 27 30 27 24 24 23 33 39 30 27 21 23 30 29 36 40 45 48 40
57 56 44 36 36 49 80 90 96 99 98 90 81 78 61 47 46 37 34 39 41 47 45 33 29 31 33 26 25 26 25 30 33 36 35 34 27 29 34 27 42 38 39 33
63 61 49 38 58 83 87 94 98 97 96 96 80 78 54 50 47 38 37 41 45 50 44 31 32 35 33 29 31 27 24 26 25 30 24 24 26 24 31 33 30 35 33 37
67 66 50 48 84 93 93 98 93 98 93 95 89 79 56 51 43 37 41 41 46 46 40 31 35 37 34 33 28 28 24 26 20 19 20 17 19 23 28 29 31 34 32 31
73 62 61 70 94 97 91 90 98 99 93 86 87 74 61 53 39 39 40 45 52 49 38 32 34 34 27 24 24 23 22 27 25 26 22 23 26 23 19 23 25 26 35 29
71 61 63 87 94 88 87 96 97 98 95 85 71 67 63 46 38 42 46 50 54 52 38 32 36 30 29 27 21 18 19 25 26 33 28 37 18 20 18 18 18 25 26 29
64 66 69 74 85 93 93 96 99 97 93 86 75 77 64 48 44 50 52 54 52 45 36 37 39 37 33 34 24 23 21 28 30 34 32 22 17 20 18 18 19 17 22 25
58 57 62 71 84 85 95 90 98 95 91 76 73 67 56 51 51 58 58 57 53 42 36 40 41 46 38 35 29 25 27 28 34 34 33 34 25 18 18 16 25 19 17 20
63 53 58 70 75 84 91 91 93 98 92 83 77 61 54 53 59 59 57 56 50 42 41 49 44 42 28 33 33 32 33 35 36 41 44 32 20 16 17 21 25 19 16 19
55 53 61 65 75 83 93 94 94 98 91 80 78 73 66 54 54 51 54 53 46 44 46 48 45 42 33 31 28 30 32 38 42 39 41 33 18 17 20 19 20 18 17 18
51 52 57 64 75 85 92 94 97 97 94 86 83 78 69 56 55 55 53 47 36 34 46 44 39 41 35 37 38 30 35 29 35 28 26 19 18 15 16 19 18 17 18 19
50 53 56 61 77 94 95 97 98 97 93 92 85 84 79 71 65 61 57 43 36 42 42 43 43 40 38 41 42 38 33 27 32 25 17 18 18 17 17 17 17 19 20 21
46 50 56 62 83 96 97 98 99 94 92 95 93 90 79 73 67 64 54 45 47 46 43 42 42 43 38 39 34 31 32 26 25 21 18 18 19 21 20 19 19 18 20 21
47 55 54 71 89 97 98 98 96 93 86 88 87 79 72 71 73 61 48 50 48 45 44 40 42 38 36 33 34 36 34 28 26 20 13 15 14 15 17 19 19 19 19 21
50 53 62 78 93 97 98 98 98 95 88 81 89 84 76 81 73 55 51 51 49 47 40 38 38 35 31 34 38 33 31 25 20 14 15 14 15 17 17 17 17 19 19 20
48 55 71 91 96 98 96 90 89 92 88 86 86 86 84 76 63 58 59 55 51 42 39 41 39 34 34 35 37 28 23 20 17 15 17 17 15 15 16 16 16 17 19 20
50 74 90 95 98 99 97 97 90 92 89 86 90 87 79 70 63 61 59 58 48 43 44 41 38 38 38 36 34 29 23 18 15 13 14 13 15 15 15 15 13 16 18 19
78 86 95 99 99 98 97 95 95 92 87 82 78 75 75 65 59 59 60 54 57 51 46 42 39 38 35 32 32 28 17 14 13 11 11 13 14 14 14 14 13 14 16 18
90 98 99 99 97 97 97 98 96 94 93 86 77 68 64 56 57 64 61 58 60 56 50 43 39 33 28 28 29 28 24 13 14 14 9 11 12 12 12 12 13 14 15 17
97 98 97 98 96 97 97 98 98 96 92 85 78 68 60 63 67 67 61 65 59 57 48 43 37 34 28 23 24 26 29 23 16 16 10 10 10 10 11 12 13 14 16 19
94 94 97 98 98 98 98 98 97 92 86 80 77 66 65 69 69 68 63 60 56 51 41 40 40 30 20 19 22 25 28 31 22 17 12 10 10 10 10 12 13 14 17 21
96 98 98 98 98 98 97 94 91 80 74 71 66 68 68 73 70 67 63 58 55 43 43 44 34 24 23 21 20 25 28 28 23 18 12 11 10 11 11 12 13 15 19 22
96 97 98 98 98 91 74 66 62 59 63 65 63 61 62 66 69 64 58 55 47 47 49 40 31 23 21 22 20 20 23 22 18 17 15 13 13 13 13 13 14 16 20 25
98 97 97 93 77 71 65 60 60 65 65 64 64 65 66 70 64 59 55 53 52 48 41 34 25 23 22 22 22 18 15 17 16 16 15 14 13 14 15 16 16 18 24 26
92 93 85 75 70 67 58 61 67 70 69 68 66 65 65 65 61 59 57 51 49 40 35 28 27 27 26 24 22 19 18 16 16 15 16 15 14 16 18 18 18 22 22 22
89 80 74 71 66 64 64 63 66 69 66 69 62 62 62 61 60 57 48 45 40 32 30 27 27 25 24 22 21 19 19 19 20 18 18 17 18 20 19 18 20 21 21 22

GFSNW_prec_cthk_276.txt.gz
RH
52 46 47 44 31 35 50 49 72 85 97 98 94 75 62 54 50 41 36 33 35 41 39 38 38 40 29 29 30 29 26 26 32 24 23 21 24 28 31 31 35 44 47 32
54 49 50 50 37 39 47 67 70 76 98 98 93 86 79 59 45 44 39 35 35 37 35 38 38 37 27 28 29 28 26 30 44 35 29 27 25 28 28 32 36 43 36 28
58 51 51 50 45 30 50 56 70 80 88 92 94 91 81 62 51 46 37 39 40 37 38 40 44 34 29 31 27 24 24 34 32 32 25 24 26 31 30 24 36 30 37 27
60 53 48 54 52 33 53 72 77 93 95 98 95 90 81 67 56 47 42 42 39 38 45 45 42 34 31 32 28 26 25 33 32 27 25 23 24 30 29 27 21 25 23 31
61 57 53 59 56 43 41 47 60 64 80 86 98 93 83 66 61 50 44 45 40 41 44 46 44 29 31 31 30 30 26 28 26 25 23 23 24 24 25 23 26 32 32 32
63 57 57 60 58 44 43 46 56 68 73 81 96 88 77 72 69 57 44 45 41 43 49 43 34 30 31 28 31 29 27 27 26 20 18 20 24 21 25 25 25 24 31 23
64 58 56 57 51 40 33 39 74 81 77 80 90 88 80 79 65 56 46 42 42 47 49 44 36 31 32 29 25 25 27 26 27 35 26 32 17 16 16 21 21 23 22 21
66 60 55 57 50 45 36 32 42 80 87 68 94 91 87 82 71 56 46 45 42 49 49 50 40 37 33 31 26 26 24 27 30 37 33 22 15 18 18 19 17 17 18 19
69 60 57 57 53 52 41 34 42 73 81 79 81 80 82 79 65 54 51 48 47 51 55 52 44 41 36 38 29 27 25 28 33 39 33 31 19 15 16 16 21 13 16 17
72 63 60 64 59 56 36 32 59 72 75 83 85 82 75 74 63 62 53 46 50 52 59 56 48 42 34 40 38 37 37 37 37 46 42 27 15 14 15 16 16 16 14 14
77 68 69 69 65 49 37 62 77 72 80 85 83 84 78 75 62 54 47 48 51 56 58 54 47 41 39 38 33 30 34 37 42 44 46 28 13 14 16 15 14 14 13 13
82 72 74 73 58 49 73 90 89 88 85 88 86 84 79 65 59 54 48 42 45 46 51 45 41 40 37 36 37 27 31 27 34 32 29 14 14 12 13 14 12 14 13 14
81 73 75 63 61 70 77 94 98 91 95 98 96 89 80 74 69 60 55 54 50 50 45 42 42 35 35 38 35 30 28 30 33 29 18 14 15 13 14 13 14 13 13 14
78 73 63 67 78 78 83 85 99 98 98 98 94 89 84 78 71 64 64 59 59 56 45 42 44 40 34 35 33 31 31 31 34 32 24 19 15 15 15 15 16 15 15 16
74 69 56 71 76 85 95 98 97 98 98 96 91 86 85 81 74 71 62 64 60 58 47 46 45 39 39 38 36 31 28 32 33 29 18 15 12 14 15 16 17 17 16 17
75 52 69 73 79 90 98 97 98 98 97 97 97 93 89 83 75 67 67 66 63 49 41 44 41 36 36 36 35 26 28 27 27 21 18 15 12 13 14 18 17 16 16 17
63 58 74 73 88 97 96 96 96 95 95 95 97 97 94 87 80 74 75 71 61 47 45 44 40 37 35 35 33 29 26 23 24 20 21 17 14 13 13 15 16 17 17 17
57 64 73 87 93 98 98 98 97 95 91 92 96 96 93 87 83 81 76 66 55 48 45 42 38 37 35 32 29 27 26 24 21 20 17 14 15 15 14 15 15 16 16 17
76 80 88 95 98 97 97 99 94 94 92 92 88 86 88 83 80 76 71 60 53 48 46 43 39 37 35 29 30 29 26 21 19 17 16 17 15 15 14 15 14 14 14 16
73 86 97 98 97 97 98 98 98 97 95 86 85 79 76 68 69 72 64 56 57 55 51 45 41 36 27 25 25 26 24 23 18 15 15 16 15 14 14 14 14 13 12 15
81 98 98 97 98 99 98 98 98 97 97 87 83 76 70 73 69 67 59 59 60 61 50 48 43 36 26 23 23 23 23 22 21 19 17 15 14 12 13 14 14 13 13 14
93 95 96 98 98 99 98 98 98 97 95 86 84 80 78 72 66 63 57 59 56 54 50 49 43 28 21 20 19 18 19 21 24 25 22 19 13 12 12 12 12 13 13 14
99 99 98 98 99 98 98 95 92 87 80 80 79 77 73 71 62 58 62 59 60 49 50 45 33 21 19 20 18 16 18 21 26 29 26 20 14 12 11 11 12 12 14 15
97 98 99 99 97 87 69 67 68 66 73 76 76 73 69 63 62 65 60 56 53 55 52 41 29 22 21 21 19 15 16 20 26 28 27 17 14 12 11 12 12 12 13 15
95 98 95 90 74 65 67 65 64 67 65 65 69 70 65 68 65 59 57 58 55 48 40 34 25 23 23 20 18 17 16 17 19 24 22 18 14 12 13 13 13 14 15 16
94 87 78 72 70 72 65 65 69 70 68 70 71 75 68 65 62 58 55 52 49 41 37 28 28 26 22 20 18 17 15 17 16 17 18 15 13 13 13 13 15 17 18 18
83 75 70 66 63 60 61 63 64 65 68 77 77 71 64 62 60 59 54 52 41 34 32 32 29 25 22 21 19 17 14 15 16 18 18 18 18 18 18 18 20 20 19 21

GFSNW_prec_cthk_279.txt.gz
RH
70 67 55 53 55 42 36 34 47 74 98 98 97 94 72 71 56 49 41 39 39 39 39 42 44 43 38 37 31 29 28 31 36 26 30 26 25 29 32 35 24 42 44 30
62 73 62 55 56 50 38 37 42 64 99 97 97 96 90 71 60 54 48 42 38 39 40 41 45 42 37 36 29 31 29 32 41 35 29 26 24 27 28 30 33 41 30 26
55 67 69 60 60 55 42 42 45 59 98 94 96 96 87 79 70 59 49 42 41 41 40 43 45 43 42 34 28 29 27 32 28 30 23 26 29 31 29 24 35 31 32 20
53 62 68 64 62 55 46 37 41 59 94 95 97 95 89 83 72 63 54 47 44 43 47 45 42 43 45 33 30 31 29 37 32 30 29 23 24 29 29 23 19 19 17 25
50 59 66 60 58 58 53 37 42 62 76 94 96 95 91 79 72 59 56 52 49 44 45 43 50 51 41 31 31 31 30 32 31 30 27 26 25 27 26 23 21 24 24 26
58 60 62 57 55 63 58 41 39 50 69 81 93 88 86 77 77 67 60 51 52 46 47 46 49 46 40 29 33 33 31 31 32 28 24 25 24 22 25 24 22 20 26 21
70 66 61 57 52 57 55 43 39 57 72 64 78 85 88 87 79 71 65 55 53 50 46 49 50 48 36 31 34 30 31 28 29 35 27 29 14 15 17 19 18 20 20 19
73 71 62 55 49 58 58 47 34 44 64 60 78 86 90 93 87 79 68 57 51 51 47 53 57 57 40 35 35 30 30 30 34 39 35 22 13 15 18 21 18 17 17 17
74 74 65 53 49 56 59 49 39 37 46 47 60 79 77 89 89 87 75 65 58 54 50 52 58 59 44 40 33 32 32 33 34 40 31 30 15 12 13 16 21 12 14 14
76 73 66 54 51 55 58 52 39 32 40 54 60 70 75 80 79 82 73 63 59 53 53 60 62 58 48 41 34 37 39 41 39 42 38 28 14 13 14 19 14 12 12 12
75 72 65 55 51 55 57 52 43 35 38 42 55 70 78 74 74 80 69 69 57 56 55 58 64 59 52 43 34 35 39 39 40 41 42 33 14 13 14 13 12 13 12 11
64 75 67 56 53 53 56 52 43 40 45 55 71 72 68 72 70 77 66 59 51 47 53 56 61 58 48 40 41 34 36 26 31 29 29 18 17 12 10 11 12 11 11 11
59 72 70 56 52 52 54 53 48 43 40 45 67 58 68 72 82 79 73 62 53 49 45 51 57 50 43 40 36 35 29 25 25 28 22 20 17 15 11 12 12 11 11 12
53 59 69 58 58 59 58 54 49 45 42 56 63 68 62 74 77 80 78 70 64 58 50 53 58 57 40 35 32 33 27 27 31 33 29 27 19 13 10 12 13 13 13 13
48 53 67 65 62 67 69 65 57 44 40 62 68 73 75 75 73 71 79 77 71 60 60 62 66 53 46 38 36 31 27 30 31 33 27 24 18 14 11 12 13 14 15 15
49 49 61 79 77 80 76 77 65 47 62 85 89 83 73 85 79 80 76 74 69 63 63 69 60 47 41 40 38 28 27 27 26 28 27 21 19 13 11 12 14 15 16 17
53 48 68 85 81 80 70 61 44 62 98 98 98 91 79 86 85 84 86 77 68 66 68 62 52 42 41 38 34 27 27 26 27 25 27 24 20 13 11 13 14 15 17 18
55 56 85 87 90 80 84 84 93 95 97 99 98 98 95 94 93 89 80 71 68 69 64 58 48 41 41 35 26 27 26 26 26 24 24 22 18 15 11 12 13 16 17 17
67 87 93 89 92 92 90 93 98 98 94 95 97 95 95 93 89 88 83 75 75 70 64 55 43 41 39 27 26 25 25 25 23 22 19 19 18 14 14 13 13 14 15 15
94 96 92 89 92 97 95 98 98 98 98 98 94 88 86 87 87 86 82 76 78 73 65 56 45 38 29 26 25 24 24 24 21 19 20 20 19 16 15 14 13 13 13 14
98 91 89 93 94 97 98 98 98 99 98 91 84 81 71 84 82 83 81 79 76 75 64 52 45 39 28 26 24 24 22 21 21 20 20 18 18 18 18 16 15 14 13 13
84 80 95 95 96 98 97 98 99 97 94 81 79 77 78 82 83 82 80 78 74 70 56 51 44 30 26 23 20 19 19 21 22 20 21 21 20 18 19 17 15 14 13 12
81 81 98 96 97 98 98 97 96 88 75 69 72 84 84 83 83 84 81 74 71 57 55 48 35 27 23 20 18 17 16 17 18 20 22 23 25 21 20 17 15 12 12 12
87 98 97 96 98 92 76 68 69 63 62 64 72 82 88 85 84 83 77 69 64 62 53 37 31 26 20 18 17 16 17 15 16 21 23 25 26 22 16 15 13 12 12 11
95 97 93 97 79 76 71 64 62 62 62 67 80 85 83 86 82 74 72 68 62 53 38 33 28 23 19 18 18 18 15 14 15 19 23 25 22 16 15 13 12 12 12 12
91 88 77 78 77 66 58 57 61 64 70 78 81 85 83 81 75 69 60 55 49 35 32 30 28 23 20 20 21 17 15 13 13 16 18 18 17 16 16 14 13 13 14 14
97 85 85 81 72 65 60 61 63 70 73 82 84 78 75 73 68 60 50 45 34 31 32 31 28 23 23 22 20 17 12 12 13 14 17 18 18 17 17 17 17 17 18 19

GFSNW_prec_cthk_282.txt.gz
RH
62 62 65 63 61 69 61 45 34 37 74 98 98 96 81 76 62 44 39 38 39 41 45 51 51 48 47 46 39 36 32 35 40 30 31 28 29 35 33 32 24 41 41 28
59 63 69 70 63 70 64 54 37 41 59 98 97 98 91 78 65 50 43 39 36 39 45 48 46 46 45 41 37 34 31 35 44 34 28 30 31 32 29 29 33 39 27 24
67 71 71 78 70 70 70 56 42 39 70 88 97 97 94 83 72 59 47 42 39 39 44 48 50 49 50 46 38 34 28 33 30 28 22 29 34 31 27 26 34 31 31 17
64 64 65 76 78 72 73 62 43 43 44 83 93 97 96 85 77 66 52 47 46 46 49 48 49 46 47 44 42 35 30 35 31 27 30 27 26 30 28 23 20 18 15 21
59 57 60 67 79 77 73 61 44 45 43 58 91 97 97 91 85 75 68 60 56 50 51 49 51 47 48 46 49 35 30 39 36 37 34 29 28 28 27 24 21 22 21 20
61 57 56 64 74 82 73 61 46 44 46 54 91 86 94 91 87 78 71 63 60 52 51 51 45 45 42 41 47 36 35 39 40 36 30 29 28 23 26 23 20 15 18 15
62 58 56 59 69 79 76 58 48 38 55 65 70 83 89 86 88 81 74 69 60 58 57 54 48 49 44 44 43 34 36 35 35 39 29 29 16 14 17 18 17 17 15 15
62 63 60 58 66 77 77 62 53 40 51 65 75 71 85 88 87 89 77 72 64 60 58 56 54 57 51 53 47 38 35 33 37 39 36 22 14 18 20 21 15 14 14 15
64 67 66 63 64 74 77 63 57 43 47 63 74 69 83 91 95 94 82 75 63 61 61 58 57 58 54 59 45 38 38 34 35 43 34 30 14 14 16 16 18 10 13 14
76 77 77 73 70 75 77 64 60 50 45 53 71 81 90 88 95 94 86 77 64 62 63 66 61 59 55 60 49 40 42 43 41 48 42 27 14 16 18 17 11 9 12 12
83 84 82 80 77 76 76 64 61 54 44 42 53 72 79 85 93 93 84 81 68 65 66 67 65 58 60 56 47 42 41 41 46 47 43 31 14 18 19 14 9 10 10 10
72 82 85 83 80 77 75 68 63 59 51 42 41 53 60 90 93 89 80 71 64 58 65 66 63 57 55 57 55 42 38 33 38 30 28 16 15 15 16 14 11 11 10 10
69 76 85 84 83 75 70 67 68 65 56 43 42 48 57 70 86 81 85 78 68 64 62 64 64 49 50 60 53 45 35 32 32 26 19 21 19 17 16 14 11 11 10 10
69 72 80 86 85 76 72 68 66 68 58 50 33 38 45 62 76 75 74 73 68 71 69 64 57 47 51 56 48 42 35 32 32 28 26 25 26 19 16 15 11 11 10 10
68 72 76 87 86 78 76 70 67 66 57 53 46 40 50 55 65 68 77 74 74 79 75 62 53 49 53 56 48 40 33 32 32 30 25 26 26 24 17 16 10 11 12 12
67 68 74 88 88 82 78 76 71 68 61 55 55 58 62 65 72 69 79 80 80 79 71 65 56 54 56 55 50 34 30 28 26 26 25 25 27 24 20 13 10 12 13 15
65 66 71 83 89 81 76 68 60 63 64 59 58 60 63 67 84 80 82 83 85 81 77 69 61 58 53 52 44 33 29 28 28 26 24 24 27 26 17 13 11 12 14 16
64 66 68 80 97 92 84 74 64 65 69 64 75 70 67 60 71 81 76 76 75 74 74 73 66 56 54 47 35 29 29 29 27 26 25 25 24 25 18 14 13 13 14 14
66 70 77 85 99 95 87 80 76 73 65 67 75 71 68 90 70 74 78 80 83 74 71 69 59 56 51 37 30 28 28 27 25 24 23 23 21 22 18 14 12 13 13 14
75 84 90 88 94 97 92 88 88 87 78 75 80 78 75 81 74 81 83 83 84 81 75 66 57 51 41 33 30 27 26 25 23 23 23 21 19 18 16 15 15 13 12 13
90 94 92 85 87 98 99 97 92 87 80 69 67 72 83 77 69 66 77 81 81 80 70 65 57 44 35 31 29 27 26 25 22 22 21 19 18 18 18 17 17 19 16 13
83 81 85 87 95 98 98 96 90 83 77 62 59 65 84 88 85 80 80 79 78 75 68 66 54 36 31 29 25 23 22 21 21 21 20 21 20 21 20 19 18 19 20 16
80 88 91 88 97 96 93 86 86 86 77 67 78 88 87 91 90 91 83 81 81 73 68 60 42 38 30 26 22 21 19 19 18 21 22 20 21 21 21 21 22 21 21 17
79 85 93 83 77 73 64 54 54 69 67 65 76 77 89 86 86 86 82 83 79 75 66 49 40 34 30 23 22 20 17 15 16 17 18 18 20 22 22 21 21 21 19 16
70 76 72 65 55 77 70 58 66 82 87 79 87 85 76 81 88 84 83 82 73 64 52 41 36 29 25 22 20 15 14 13 16 16 16 19 21 22 24 23 18 17 17 15
77 98 80 73 72 81 82 78 76 92 91 89 85 89 88 83 84 82 75 66 59 50 43 41 29 25 22 19 18 15 14 16 14 14 16 18 19 20 20 15 14 14 15 15
97 95 79 73 72 73 73 77 78 85 84 83 83 86 86 85 80 70 61 61 53 42 39 37 28 26 23 20 18 17 17 15 13 12 15 17 17 15 13 13 14 14 15 16

GFSNW_prec_cthk_285.txt.gz
RH
62 61 68 69 70 73 73 70 55 33 47 75 96 96 97 80 70 54 46 40 39 41 42 42 48 57 56 59 57 49 44 44 47 37 35 31 29 35 37 37 30 38 31 30
60 58 66 67 76 78 77 72 54 36 61 56 94 97 96 87 77 61 53 45 39 38 42 47 53 58 58 55 49 46 40 45 47 37 31 33 31 33 30 33 31 34 26 30
57 56 62 68 75 78 76 74 57 33 43 72 88 98 96 92 80 67 55 52 44 40 40 42 52 59 57 52 48 41 37 40 35 30 22 26 34 32 28 28 34 32 28 19
51 55 61 62 71 83 79 75 57 42 41 61 91 88 94 97 83 74 63 59 47 40 46 48 53 55 56 52 48 43 39 40 31 28 31 26 25 27 26 27 22 25 19 20
51 55 64 70 78 90 85 77 60 45 33 46 85 94 97 97 84 80 71 62 53 44 44 46 59 56 55 53 53 47 42 45 36 38 35 30 29 29 26 21 20 21 17 17
52 53 68 74 76 90 88 79 61 55 37 35 79 90 95 95 86 80 71 65 59 50 45 43 42 46 52 51 49 48 43 45 35 33 32 33 34 31 24 21 19 16 18 15
53 50 65 72 70 76 85 82 69 59 45 39 63 76 90 97 91 85 78 68 61 56 51 49 51 47 54 48 49 45 47 39 34 35 31 34 21 16 17 17 17 14 12 10
72 54 61 67 66 71 76 82 78 62 53 38 52 64 88 94 96 91 87 75 67 65 60 58 57 58 55 53 53 46 43 36 39 37 31 23 17 17 19 19 12 12 11 12
79 69 62 65 64 62 72 75 79 68 57 39 47 74 92 92 97 98 94 84 73 68 67 64 62 63 59 58 53 49 46 37 36 39 30 28 15 14 17 16 17 10 10 12
84 76 69 64 63 57 65 67 78 73 63 41 47 77 96 97 94 97 94 87 76 70 69 70 69 65 62 60 56 58 50 39 41 44 37 28 19 16 18 19 14 10 11 11
92 78 70 67 64 61 63 63 78 74 62 43 50 67 92 96 95 91 87 89 82 78 74 74 71 65 65 58 52 55 47 41 42 40 41 36 17 18 18 17 13 11 11 12
98 84 72 71 69 68 67 72 77 77 66 46 49 70 81 90 95 97 90 90 80 73 73 71 67 66 64 56 58 53 47 37 37 34 32 17 13 14 16 15 15 13 9 10
97 87 80 79 78 80 79 80 83 80 70 52 44 51 64 78 84 79 91 90 80 76 68 68 67 61 60 54 49 53 46 38 33 32 25 19 18 18 16 16 17 14 10 9
83 81 90 94 93 94 92 88 83 76 68 62 50 54 60 75 89 88 88 89 82 79 73 69 68 61 58 51 46 49 47 38 34 33 28 23 23 24 22 18 18 16 11 9
83 79 83 95 98 97 96 90 83 70 64 59 48 63 59 68 78 90 93 90 87 80 81 74 66 62 59 52 49 49 45 37 33 34 27 25 26 26 24 22 19 17 11 9
87 85 81 90 98 99 96 95 87 75 72 66 61 48 45 49 59 88 92 90 86 89 77 71 68 64 58 53 50 46 40 32 29 29 27 25 24 26 24 24 18 16 10 10
90 90 87 84 98 98 95 92 77 73 78 76 66 51 53 58 63 84 87 86 82 77 80 71 68 67 64 56 45 46 41 34 31 28 26 25 24 23 24 22 18 15 12 12
95 91 92 87 99 99 99 93 75 75 81 77 67 61 61 56 61 65 72 74 84 78 78 73 71 68 64 56 41 44 40 34 31 27 27 25 25 24 24 25 20 16 13 13
97 94 98 97 99 98 96 94 86 81 79 71 62 66 72 73 72 70 77 75 83 72 72 71 70 67 65 45 41 45 38 32 28 27 25 24 25 24 23 23 18 16 13 13
96 97 98 97 95 98 97 99 95 89 81 69 59 59 78 77 75 78 89 83 85 76 68 69 66 60 48 39 40 41 33 28 25 25 24 24 24 22 21 19 17 15 16 16
96 95 98 96 94 98 98 98 92 86 78 63 53 55 71 70 68 68 84 90 76 74 70 67 59 50 36 37 39 36 31 27 25 25 23 23 23 21 19 17 18 15 16 17
86 76 92 97 98 98 98 95 86 74 64 56 47 50 59 73 76 77 68 72 77 72 67 67 56 39 35 36 37 32 29 26 24 23 22 23 24 22 21 20 20 21 20 20
94 93 97 99 98 95 84 74 61 54 46 47 42 54 65 74 82 86 78 67 71 68 68 60 43 36 33 35 35 29 25 22 20 20 20 22 23 22 21 22 23 23 23 24
94 83 95 97 86 64 50 36 38 40 44 40 44 57 67 73 79 85 76 64 68 71 65 48 40 33 33 34 28 24 22 20 18 18 18 19 21 21 21 24 24 23 25 25
85 74 86 73 51 45 44 40 40 42 42 50 57 67 69 76 85 81 75 73 64 54 47 40 34 34 33 29 26 22 20 18 17 16 16 18 19 19 22 22 22 23 24 23
78 62 60 55 50 49 44 40 41 43 46 61 67 72 77 69 74 83 69 62 56 47 42 32 33 34 32 29 25 21 19 18 15 13 14 16 17 19 20 21 20 20 19 16
72 58 46 46 41 45 41 38 38 46 58 77 71 68 63 63 65 66 57 55 49 40 31 34 35 35 32 26 23 20 16 15 13 14 16 16 17 17 18 18 18 16 14 15